Regional Weather Roundup
Issued by NWS Northern Indiana

Home | Current Version | Previous Version | Graphics & Text | Print | Product List | Glossary On
Versions: 1 2 3 4 5 6 7 8 9 10 11 12 13 14 15 16 17 18 19 20 21 22 23 24 25 26 27 28 29 30 31 32 33 34 35 36 37 38 39 40 41 42 43 44 45 46 47 48 49 50
000
ASUS43 KIWX 172210
RWRIWX

KIWX WEATHER ROUNDUP
NATIONAL WEATHER SERVICE NORTHERN INDIANA
500 PM EST SAT FEB 17 2018

NOTE: "FAIR" INDICATES FEW OR NO CLOUDS BELOW 12,000 FEET WITH NO
SIGNIFICANT WEATHER AND/OR OBSTRUCTIONS TO VISIBILITY.

* THESE STATIONS ARE NOT UNDER NWS QUALITY CONTROL. THEY ALSO MAY NOT
  REPORT WEATHER SUCH AS PRECIPITATION OR FOG.

INZ001>027-172300-
NORTHERN INDIANA

CITY           SKY/WX    TMP DP  RH WIND       PRES   REMARKS
GARY*          LGT SNOW  34  32  93 S5        29.95R VSB 3/4 WCI  30
VALPARAISO     SNOW      34  31  88 S8        29.95S VSB 1/2 WCI  27
MICHIGAN CITY* FLURRIES  34  28  80 S8        29.95R WCI  27
LAPORTE*       PTSUNNY   34  28  80 S7        29.95R WCI  27
KNOX*          CLOUDY    34  30  86 S10       29.95F WCI  26
SOUTH BEND     CLOUDY    33  26  75 SW6       29.95F WCI  28
GOSHEN         CLOUDY    34  27  75 S8        29.95F WCI  27
MONTICELLO*    LGT SNOW  32  31  96 SE3       29.97S VSB 3/4
LOGANSPORT*    SNOW      32  30  93 CALM      29.98F VSB 1/2
ROCHESTER*     LGT SNOW  34  32  93 S6        29.98S VSB 3/4 WCI  29
WARSAW*        CLOUDY    34  28  80 S5        29.96F WCI  30
AUBURN*        CLOUDY    34  28  80 SW3       29.99R
FORT WAYNE     CLOUDY    35  29  78 SW6       30.00R WCI  30
HUNTINGTON*    CLOUDY    33  28  83 SW5       29.99R WCI  28
PERU/GRISSOM   LGT SNOW  33  33 100 S3        29.97S FOG
MARION*        LGT SNOW  32  31  96 CALM      29.99S VSB 1

$$
INZ028>050-172300-
CENTRAL INDIANA

CITY           SKY/WX    TMP DP  RH WIND       PRES   REMARKS
LAFAYETTE      LGT SNOW  32  32 100 S3        29.98S VSB 3/4
KOKOMO*        LGT SNOW  33  30  88 S6        29.99R FOG     WCI  28
MUNCIE*        LGT SNOW  35  32  88 SW6       29.99R FOG     WCI  30
INDIANAPOLIS   LGT SNOW  35  33  92 S8        30.00R FOG     WCI  29

$$
MIZ043>046-050>051-056>058-064>065-071>073-077>080-172300-
SOUTHWEST LOWER MICHIGAN

CITY           SKY/WX    TMP DP  RH WIND       PRES   REMARKS
BATTLE CREEK   CLOUDY    33  24  69 S7        29.95F WCI  27
BENTON HARBOR  CLOUDY    35  23  61 S6        29.95F WCI  30
COLDWATER*     CLOUDY    33  24  70 W9        29.96S WCI  25
HILLSDALE*     CLOUDY    32  25  74 SW5       29.95R WCI  27
HOLLAND        CLOUDY    32  24  72 SW5       29.95F WCI  27
GRAND RAPIDS   CLOUDY    34  23  64 SW10      29.94F WCI  26
KALAMAZOO      CLOUDY    34  22  61 MISG      29.96F
STURGIS*       CLOUDY    34  27  75 SW6       29.95F WCI  29
THREE RIVERS*  CLOUDY    34  25  69 S6        29.95F WCI  29

$$
OHZ001>008-015>018-024>025-172300-
NORTHWEST OHIO

CITY           SKY/WX    TMP DP  RH WIND       PRES   REMARKS
WAUSEON*       PTSUNNY   34  32  93 SW6       29.99R WCI  29
DEFIANCE       CLOUDY    34  27  75 SW7       30.00S WCI  28
FINDLAY        CLOUDY    33  28  81 S6        29.98R HAZE    WCI  28
TOLEDO EXPRESS CLOUDY    34  28  79 S6        29.99S WCI  29
TOLEDO METCALF CLOUDY    34  26  72 S7        30.00S WCI  28
LIMA           CLOUDY    32  32 100 S5        29.98F FOG     WCI  27

$$
AND FOR LAKE MICHIGAN COASTAL AND OPEN LAKE BUOY OBSERVATIONS

STATION/POSITION TEMP    WIND        PRES    VSBY  WAVE
                 AIR SEA DIR/SP/G                  HT/PER
                 (F)     (DEG/KT/KT) (MB)    (MI)  (FT/S)
CALUMET HARBOR    32     190/  7/ 10 1013.3R
MICHIGAN CITY     34     180/ 13/ 15   N/A
BURNS HARBOR      34     200/ 10/ 16 1014.6R
SAINT JOSEPH      35     170/  2/  7 1015.2

$$
&&




USA.gov is the U.S. government's official web portal to all federal, state and local government web resources and services.